SL-16 DEB, 22432

Orbit data source: Space-Track

SL-16 DEB, 22432 is space debris in LEO originally from a launch on Fri, 25 Dec 1992 UTC launched from the Tyuratam Missile And Space Complex (TTMTR). Debris objects in space refer to the collection of defunct objects orbiting the Earth. Examples of debris include non-operational satellites, rocket bodies, and fragments generated from explosions, collisions, or faulty payload assembly.

Loading next visibility...
Identifier
22432, 1992-093DZ
Orbit
LEO
Country
Flag of CISCIS
Related business
Manufacturer
Unknown
Mission
Spacecraft
Bus & Motor
Unknown
Mass
Unknown
Launch date (UTC)
1992-12-25 (33 years ago)
Launch vehicle
Unknown
Launch site
Tyuratam Missile And Space Complex (TTMTR)
Object type
Payload
Rocket body
Debris
Shape & HBR
Unknown shape, 0.1 m
Radar Cross Section
Small (<0.1 m²)

Expand to show TLE details & history
Last TLE update: 11 hours ago

TLE from 11 hours ago
0 SL-16 DEB
1 22432U 92093DZ  25349.87734914  .00000903  00000-0  54324-3 0  9995
2 22432  70.8329 268.4457 0103455 255.7718 172.0505 14.06948614680099
Epoch: 2025-12-15T21:03Z
TLE epoch observation values (Epoch: 2025-12-15T21:03:22.965Z)
Latitude
61.23295°
Longitude
-93.13131°
Altitude
954.031 km
Speed
7.343 km/s
True Right ascension
20h 29m 56s
True Declination
61° 05' 29"
Sunlit
Object was in daylight at epoch
Visualization orbit readout
Latitude
Unknown
Longitude
Unknown
Altitude
Unknown
Speed
Unknown
Apparent Right ascension
Unknown
Apparent Declination
Unknown
Sunlit
N/A
Visualization observer readout
Local Sidereal Time
06:19:50
Azimuth
Unknown
Elevation
Unknown
Doppler factor
Unknown
Orbital elements
Apogee altitude
942.744 km
Perigee altitude
792.819 km
Semi-major axis
7,245.918 km
Eccentricity
0.01035
Inclination
70.8329°
RAAN
268.4457°
Arg. of periapsis
255.7718°
True anomaly
172.21238°
Mean anomaly
172.0505°
Eccentric anomaly
172.13165°
Mean motion
3.51887 °/min
Orbital period
102.31 mins
BSTAR
0.00054324
Loading maneuver chart data...
Computing Atmospheric mass density...
Loading historical data...
Loading historical data...
Loading historical data...
Loading historical data...
Loading historical data...
Loading historical data...
Loading historical data...

Documentation

Showing up to 5 results
|